• In Uzbekistan
  • List of Countries
  • For 7 days
  • Water Temperature
  • Satellite Maps
  • Weather Map
  • Weather Widgets
  • user-avatar
    Login

    Hourly Weather Corfu

    Today, 22 February, Thursday

    Time Temperature Precipitation Wind Pressure Humidity
    00:00 +9°C° 1 mm 6 mps 753 mmHg 91%
    01:00 +9°C° 0 mm 6 mps 753 mmHg 90%
    02:00 +9°C° 0.4 mm 6 mps 753 mmHg 91%
    03:00 +9°C° 0.4 mm 5 mps 753 mmHg 91%
    04:00 +8°C° 0.4 mm 4 mps 753 mmHg 91%
    05:00 +8°C° 0.2 mm 4 mps 754 mmHg 90%
    06:00 +8°C° 0.2 mm 4 mps 754 mmHg 90%
    07:00 +8°C° 0 mm 4 mps 754 mmHg 89%
    08:00 +10°C° 0.1 mm 5 mps 754 mmHg 83%
    09:00 +13°C° 0.1 mm 5 mps 755 mmHg 77%
    10:00 +14°C° 0.1 mm 5 mps 755 mmHg 71%
    11:00 +15°C° 0.1 mm 5 mps 755 mmHg 68%
    12:00 +15°C° 0.1 mm 5 mps 755 mmHg 65%
    13:00 +16°C° 0.1 mm 5 mps 755 mmHg 63%
    14:00 +15°C° 0 mm 5 mps 755 mmHg 66%
    15:00 +15°C° 0 mm 5 mps 755 mmHg 68%
    16:00 +14°C° 0 mm 5 mps 755 mmHg 71%
    17:00 +13°C° 0 mm 4 mps 755 mmHg 77%
    18:00 +12°C° 0 mm 4 mps 755 mmHg 82%
    19:00 +11°C° 0 mm 4 mps 756 mmHg 88%
    20:00 +11°C° 0 mm 4 mps 756 mmHg 88%
    21:00 +10°C° 0 mm 4 mps 756 mmHg 88%
    22:00 +9°C° 0 mm 5 mps 756 mmHg 88%
    23:00 +9°C° 0 mm 5 mps 756 mmHg 87%

    Tomorrow, 23 February, Friday

    Time Temperature Precipitation Wind Pressure Humidity
    00:00 +9°C° 0 mm 5 mps 756 mmHg 87%
    01:00 +9°C° 0 mm 5 mps 756 mmHg 86%
    02:00 +8°C° 0 mm 5 mps 756 mmHg 85%
    03:00 +8°C° 0 mm 5 mps 756 mmHg 84%
    04:00 +8°C° 0 mm 5 mps 755 mmHg 84%
    05:00 +8°C° 0 mm 5 mps 755 mmHg 84%
    06:00 +8°C° 0 mm 5 mps 755 mmHg 84%
    07:00 +8°C° 0 mm 5 mps 756 mmHg 84%
    08:00 +10°C° 0 mm 5 mps 756 mmHg 76%
    09:00 +13°C° 0 mm 5 mps 756 mmHg 69%
    10:00 +15°C° 0 mm 5 mps 756 mmHg 61%
    11:00 +16°C° 0 mm 5 mps 756 mmHg 57%
    12:00 +17°C° 0 mm 5 mps 755 mmHg 53%
    13:00 +19°C° 0 mm 5 mps 755 mmHg 50%
    14:00 +17°C° 0 mm 5 mps 755 mmHg 53%
    15:00 +17°C° 0 mm 5 mps 755 mmHg 56%
    16:00 +17°C° 0 mm 5 mps 754 mmHg 59%
    17:00 +15°C° 0 mm 5 mps 754 mmHg 64%
    18:00 +13°C° 0 mm 5 mps 754 mmHg 69%
    19:00 +12°C° 0 mm 5 mps 755 mmHg 74%
    20:00 +12°C° 0 mm 5 mps 754 mmHg 75%
    21:00 +10°C° 0 mm 6 mps 754 mmHg 77%
    22:00 +10°C° 0 mm 7 mps 754 mmHg 78%
    23:00 +10°C° 0 mm 7 mps 754 mmHg 78%

    Day after tomorrow, 24 February, Saturday

    Time Temperature Precipitation Wind Pressure Humidity
    00:00 +10°C° 0 mm 7 mps 754 mmHg 78%
    01:00 +10°C° 0 mm 7 mps 753 mmHg 78%
    02:00 +10°C° 0.2 mm 6 mps 753 mmHg 77%
    03:00 +10°C° 0.2 mm 6 mps 753 mmHg 77%
    04:00 +10°C° 0.2 mm 6 mps 753 mmHg 77%
    05:00 +10°C° 0.4 mm 6 mps 753 mmHg 79%
    06:00 +10°C° 0.4 mm 6 mps 753 mmHg 82%
    07:00 +9°C° 0.4 mm 7 mps 753 mmHg 85%
    08:00 +10°C° 0.4 mm 7 mps 754 mmHg 82%
    09:00 +11°C° 0.4 mm 6 mps 754 mmHg 79%
    10:00 +11°C° 0.4 mm 6 mps 755 mmHg 76%
    11:00 +13°C° 0.3 mm 5 mps 754 mmHg 75%
    12:00 +13°C° 0.3 mm 4 mps 754 mmHg 74%
    13:00 +13°C° 0.3 mm 4 mps 754 mmHg 73%
    14:00 +13°C° 0.1 mm 3 mps 754 mmHg 72%
    15:00 +14°C° 0.1 mm 3 mps 754 mmHg 71%
    16:00 +14°C° 0.1 mm 3 mps 754 mmHg 69%
    17:00 +13°C° 0 mm 3 mps 754 mmHg 73%
    18:00 +12°C° 0 mm 3 mps 754 mmHg 77%
    19:00 +11°C° 0 mm 3 mps 755 mmHg 80%
    20:00 +10°C° 0 mm 3 mps 755 mmHg 81%
    21:00 +10°C° 0 mm 3 mps 756 mmHg 81%
    22:00 +9°C° 0 mm 3 mps 756 mmHg 82%
    23:00 +9°C° 0.1 mm 3 mps 756 mmHg 82%

    25 February, Sunday

    Time Temperature Precipitation Wind Pressure Humidity
    00:00 +9°C° 0.1 mm 2 mps 756 mmHg 81%
    01:00 +9°C° 0.1 mm 2 mps 756 mmHg 81%
    02:00 +9°C° 0.1 mm 2 mps 756 mmHg 81%
    03:00 +9°C° 0.1 mm 2 mps 756 mmHg 81%
    04:00 +9°C° 0.1 mm 2 mps 756 mmHg 80%
    05:00 +9°C° 0 mm 2 mps 756 mmHg 80%
    06:00 +9°C° 0 mm 3 mps 756 mmHg 80%
    07:00 +9°C° 0 mm 3 mps 756 mmHg 79%
    08:00 +10°C° 0 mm 3 mps 756 mmHg 74%
    09:00 +12°C° 0 mm 4 mps 756 mmHg 69%
    10:00 +13°C° 0 mm 4 mps 756 mmHg 64%
    11:00 +13°C° 0.2 mm 5 mps 756 mmHg 66%
    12:00 +13°C° 0.2 mm 5 mps 756 mmHg 68%
    13:00 +13°C° 0.2 mm 5 mps 756 mmHg 70%
    14:00 +13°C° 0.4 mm 5 mps 756 mmHg 75%
    15:00 +12°C° 0.4 mm 5 mps 755 mmHg 80%
    16:00 +12°C° 0.4 mm 5 mps 755 mmHg 85%
    17:00 +10°C° 0.4 mm 5 mps 755 mmHg 87%
    18:00 +10°C° 0.4 mm 5 mps 755 mmHg 90%
    19:00 +10°C° 0.4 mm 6 mps 755 mmHg 93%
    20:00 +10°C° 0.4 mm 7 mps 755 mmHg 92%
    21:00 +10°C° 0.4 mm 7 mps 755 mmHg 92%
    22:00 +10°C° 0.4 mm 8 mps 754 mmHg 91%
    23:00 +8°C° 0.9 mm 9 mps 753 mmHg 90%

    26 February, Monday

    Time Temperature Precipitation Wind Pressure Humidity
    00:00 +8°C° 0.9 mm 9 mps 752 mmHg 89%
    01:00 +8°C° 0.9 mm 10 mps 751 mmHg 89%
    02:00 +8°C° 1.9 mm 11 mps 750 mmHg 87%
    03:00 +8°C° 1.9 mm 11 mps 749 mmHg 85%
    04:00 +8°C° 1.9 mm 12 mps 748 mmHg 83%
    05:00 +7°C° 4.3 mm 10 mps 748 mmHg 88%
    06:00 +7°C° 4.3 mm 9 mps 748 mmHg 92%
    07:00 +6°C° 4.3 mm 7 mps 748 mmHg 96%
    08:00 +8°C° 1.7 mm 7 mps 748 mmHg 94%
    09:00 +8°C° 1.7 mm 6 mps 749 mmHg 92%
    10:00 +8°C° 1.7 mm 5 mps 750 mmHg 90%
    11:00 +9°C° 0.6 mm 5 mps 750 mmHg 89%
    12:00 +9°C° 0.6 mm 5 mps 750 mmHg 89%
    13:00 +9°C° 0.6 mm 5 mps 750 mmHg 89%
    14:00 +10°C° 0.2 mm 4 mps 751 mmHg 88%
    15:00 +10°C° 0.2 mm 3 mps 751 mmHg 87%
    16:00 +10°C° 0.2 mm 2 mps 751 mmHg 86%
    17:00 +10°C° 0.5 mm 3 mps 751 mmHg 88%
    18:00 +8°C° 0.5 mm 4 mps 751 mmHg 89%
    19:00 +7°C° 0.5 mm 5 mps 751 mmHg 91%
    20:00 +8°C° 1.5 mm 6 mps 751 mmHg 91%
    21:00 +8°C° 1.5 mm 7 mps 751 mmHg 91%
    22:00 +8°C° 1.5 mm 7 mps 750 mmHg 91%
    23:00 +8°C° 0.9 mm 7 mps 750 mmHg 90%

    27 February, Tuesday

    Time Temperature Precipitation Wind Pressure Humidity
    00:00 +8°C° 0.9 mm 7 mps 750 mmHg 88%
    01:00 +8°C° 0.9 mm 7 mps 750 mmHg 87%
    02:00 +6°C° 0.3 mm 7 mps 750 mmHg 88%
    03:00 +6°C° 0.3 mm 7 mps 750 mmHg 88%
    04:00 +5°C° 0.3 mm 6 mps 751 mmHg 89%
    05:00 +5°C° 0.2 mm 6 mps 751 mmHg 88%
    06:00 +7°C° 0.2 mm 6 mps 751 mmHg 87%
    07:00 +7°C° 0.2 mm 6 mps 752 mmHg 87%
    08:00 +7°C° 0.1 mm 6 mps 752 mmHg 83%
    09:00 +8°C° 0.1 mm 5 mps 753 mmHg 79%
    10:00 +8°C° 0.1 mm 5 mps 753 mmHg 75%
    11:00 +8°C° 0.1 mm 4 mps 753 mmHg 74%
    12:00 +8°C° 0.1 mm 4 mps 754 mmHg 73%
    13:00 +10°C° 0.1 mm 3 mps 754 mmHg 72%
    14:00 +9°C° 0.1 mm 3 mps 754 mmHg 74%
    15:00 +9°C° 0.1 mm 3 mps 754 mmHg 77%
    16:00 +9°C° 0.1 mm 3 mps 754 mmHg 79%
    17:00 +9°C° 0.1 mm 3 mps 754 mmHg 82%
    18:00 +9°C° 0.1 mm 3 mps 754 mmHg 85%
    19:00 +9°C° 0.1 mm 3 mps 755 mmHg 88%
    20:00 +9°C° 0.1 mm 3 mps 755 mmHg 88%
    21:00 +8°C° 0.1 mm 3 mps 755 mmHg 88%
    22:00 +8°C° 0.1 mm 3 mps 756 mmHg 88%
    23:00 +7°C° 0 mm 4 mps 756 mmHg 88%
    Show more